This demonstration page uses our WeatherBlox Daily Observations layout. Learn more.

Left ArrowRight Arrow

Hourly Observations for June 17, 2016

Temp ( °F °C ) Dew Point ( °F °C ) Humidity (%) Winds ( mph kmh ) Pressure ( in mb ) Visibility ( mi km ) Precip ( " mm )
12:51 am 00:51 Clear 74 23.3 20 -6.7 13 13 NNW 7 11 29.85 1011 10 16 0.00 0.00
1:51 am 01:51 Clear 73 22.8 21 -6.1 14 14 SSW 3 6 29.85 1011 10 16 0.00 0.00
2:51 am 02:51 Clear 66 18.9 22 -5.6 19 19 SSE 3 6 29.86 1011 10 16 0.00 0.00
3:51 am 03:51 Clear 63 17.2 23 -5 22 22 Calm 29.88 1012 10 16 0.00 0.00
4:51 am 04:51 Clear 61 16.1 23 -5 23 23 SE 5 7 29.90 1013 10 16 0.00 0.00
5:51 am 05:51 Sunny 62 16.7 24 -4.4 23 23 SSE 5 7 29.92 1013 10 16 0.00 0.00
6:51 am 06:51 Sunny 70 21.1 23 -5 17 17 Calm 29.93 1014 10 16 0.00 0.00
7:51 am 07:51 Sunny 76 24.4 25 -3.9 15 15 S 5 7 29.96 1015 10 16 0.00 0.00
8:51 am 08:51 Sunny 81 27.2 26 -3.3 13 13 VRB 3 6 29.95 1014 10 16 0.00 0.00
9:51 am 09:51 Sunny 87 30.6 26 -3.3 11 11 Calm 29.94 1014 10 16 0.00 0.00
10:51 am 10:51 Sunny 92 33.3 26 -3.3 9 9 W 5 7 29.93 1014 10 16 0.00 0.00
11:51 am 11:51 Sunny 96 35.6 24 -4.4 7 7 W 15 24 29.91 1013 10 16 0.00 0.00
12:51 pm 12:51 Sunny 97 36.1 26 -3.3 8 8 SW 8 13 29.90 1012 10 16 0.00 0.00
1:51 pm 13:51 Sunny 99 37.2 20 -6.7 6 6 VRB 6 9 29.87 1012 10 16 0.00 0.00
2:51 pm 14:51 Sunny 101 38.3 20 -6.7 5 5 NW 17 28 29.85 1011 10 16 0.00 0.00
3:51 pm 15:51 Sunny 101 38.3 18 -7.8 5 5 NNW 12 19 29.83 1010 10 16 0.00 0.00
4:51 pm 16:51 Sunny 101 38.3 16 -8.9 4 4 NW 10 17 29.82 1010 10 16 0.00 0.00
5:51 pm 17:51 Sunny 100 37.8 17 -8.3 5 5 NW 14 22 29.82 1010 10 16 0.00 0.00
6:51 pm 18:51 Sunny 97 36.1 15 -9.4 5 5 NW 16 26 29.82 1010 10 16 0.00 0.00
7:51 pm 19:51 Clear 92 33.3 11 -11.7 5 5 WNW 12 19 29.84 1011 10 16 0.00 0.00
8:51 pm 20:51 Clear 86 30 7 -13.9 5 5 NW 10 17 29.87 1011 10 16 0.00 0.00
9:51 pm 21:51 Clear 85 29.4 10 -12.2 6 6 NW 12 19 29.87 1012 10 16 0.00 0.00
10:51 pm 22:51 Clear 82 27.8 15 -9.4 8 8 NNW 9 15 29.87 1012 10 16 0.00 0.00
11:51 pm 23:51 Clear 78 25.6 16 -8.9 9 9 NNW 7 11 29.88 1012 10 16 0.00 0.00

Powered by AerisWeather